Location: Atherton
(17.2661°S, 145.4859°E)
Time: 01:27:31
(UTC+10:00)

A-11 Canister half - All Passes

Search period start: 24 June 2025 00:00
Search period end: 04 July 2025 00:00
Orbit: 1515 x 1684 km, 47.2° (Epoch: 22 June)

Date Brightness Start Highest point End Pass type
(mag) Time Alt. Az. Time Alt. Az. Time Alt. Az.
24 Jun - 01:33:43 10° WNW 01:42:19 42° SW 01:50:59 10° SSE night (unlit)
24 Jun - 03:46:36 10° SW 03:49:35 12° SSW 03:52:36 10° S visible
24 Jun - 08:00:44 10° SSW 08:08:20 25° SE 08:16:04 10° E daylight
24 Jun - 10:04:11 10° SW 10:14:04 89° NW 10:24:12 10° NE daylight
24 Jun - 12:12:16 10° W 12:18:34 19° NW 12:24:57 10° NNW daylight
24 Jun - 23:05:55 10° NNW 23:14:33 43° NE 23:23:05 10° ESE night (unlit)
25 Jun - 01:10:32 10° WNW 01:19:15 45° SW 01:28:03 10° SSE night (unlit)
25 Jun - 03:22:47 10° SW 03:26:20 12° SSW 03:29:55 10° S visible
25 Jun - 07:37:52 10° SSW 07:45:10 23° SSE 07:52:35 10° E daylight
25 Jun - 09:41:11 10° SW 09:51:01 86° SE 10:01:09 10° NE daylight
25 Jun - 11:48:45 10° W 11:55:32 21° NW 12:02:27 10° N daylight
25 Jun - 22:43:06 10° NNW 22:51:34 39° NE 22:59:56 10° ESE visible
26 Jun - 00:47:21 10° WNW 00:56:12 49° SW 01:05:06 10° SSE night (unlit)
26 Jun - 02:59:04 10° SW 03:03:06 13° SSW 03:07:10 10° S visible
26 Jun - 07:15:01 10° SSW 07:21:59 22° SSE 07:29:06 10° E daylight
26 Jun - 09:18:10 10° SW 09:27:58 80° SE 09:38:03 10° NE daylight
26 Jun - 11:25:18 10° W 11:32:30 23° NW 11:39:51 10° N daylight
26 Jun - 22:20:19 10° N 22:28:35 36° NE 22:36:45 10° ESE visible
27 Jun - 00:24:11 10° WNW 00:33:09 52° SW 00:42:09 10° SSE night (unlit)
27 Jun - 02:35:23 10° SW 02:39:52 14° SSW 02:44:25 10° S visible
27 Jun - 06:52:10 10° SSW 06:58:49 20° SSE 07:05:33 10° ESE daylight
27 Jun - 08:55:10 10° SW 09:04:55 74° SE 09:14:56 10° NE daylight
27 Jun - 11:01:54 10° WSW 11:09:29 25° NW 11:17:13 10° N daylight
27 Jun - 21:57:33 10° N 22:05:37 33° NE 22:13:32 10° ESE visible
28 Jun - 00:01:02 10° WNW 00:10:07 57° SW 00:19:12 10° SSE night (unlit)
28 Jun - 02:11:45 10° WSW 02:16:40 15° SSW 02:21:37 10° S night (unlit)
28 Jun - 06:29:20 10° SSW 06:35:37 19° SSE 06:41:59 10° ESE daylight
28 Jun - 08:32:11 10° SW 08:41:52 69° SE 08:51:49 10° NE daylight
28 Jun - 10:38:34 10° WSW 10:46:27 28° NW 10:54:33 10° N daylight
28 Jun - 21:34:49 10° N 21:42:37 30° NE 21:50:17 10° ESE visible
28 Jun - 23:37:54 10° NW 23:47:05 61° SW 23:56:14 10° SE night (unlit)
29 Jun - 01:48:10 10° WSW 01:53:28 16° SSW 01:58:49 10° S night (unlit)
29 Jun - 06:06:31 10° S 06:12:25 17° SSE 06:18:24 10° ESE visible
29 Jun - 08:09:13 10° SW 08:18:48 64° SE 08:28:40 10° NE daylight
29 Jun - 10:15:16 10° WSW 10:23:26 30° NW 10:31:49 10° N daylight
29 Jun - 21:12:06 10° N 21:19:37 27° NE 21:27:01 10° ESE visible
29 Jun - 23:14:48 10° NW 23:24:03 66° SW 23:33:16 10° SE night (unlit)
30 Jun - 01:24:36 10° WSW 01:30:17 17° SSW 01:36:00 10° S night (unlit)
30 Jun - 05:43:44 10° S 05:49:13 16° SSE 05:54:46 10° ESE visible
30 Jun - 07:46:16 10° SW 07:55:45 60° SE 08:05:31 10° ENE daylight
30 Jun - 09:52:00 10° WSW 10:00:25 33° NW 10:09:03 10° N daylight
30 Jun - 20:49:27 10° N 20:56:39 25° NE 21:03:41 10° ESE visible
30 Jun - 22:51:42 10° NW 23:01:02 72° SW 23:10:18 10° SE visible
01 Jul - 01:01:05 10° WSW 01:07:06 19° SSW 01:13:09 10° SSE night (unlit)
01 Jul - 05:20:57 10° S 05:26:00 15° SSE 05:31:06 10° ESE visible
01 Jul - 07:23:18 10° SSW 07:32:41 55° SE 07:42:20 10° ENE daylight
01 Jul - 09:28:46 10° WSW 09:37:24 36° NW 09:46:16 10° N daylight
01 Jul - 20:26:50 10° N 20:33:39 22° NE 20:40:20 10° E visible
01 Jul - 22:28:38 10° NW 22:38:01 77° SW 22:47:19 10° SE visible
02 Jul - 00:37:35 10° WSW 00:43:56 20° SSW 00:50:19 10° SSE night (unlit)
02 Jul - 04:58:12 10° S 05:02:46 14° SSE 05:07:22 10° SE visible
02 Jul - 07:00:22 10° SSW 07:09:37 51° SE 07:19:07 10° ENE daylight
02 Jul - 09:05:35 10° WSW 09:14:22 40° NW 09:23:26 10° NNE daylight
02 Jul - 20:04:17 10° N 20:10:39 20° NE 20:16:54 10° E visible
02 Jul - 22:05:34 10° NW 22:15:01 83° SW 22:24:19 10° SE visible
03 Jul - 00:14:07 10° W 00:20:47 21° SSW 00:27:28 10° SSE night (unlit)
03 Jul - 04:35:30 10° S 04:39:32 13° SSE 04:43:36 10° SE visible
03 Jul - 06:37:26 10° SSW 06:46:32 47° SE 06:55:54 10° ENE daylight
03 Jul - 08:42:24 10° WSW 08:51:21 43° NW 09:00:35 10° NNE daylight
03 Jul - 19:41:48 10° NNE 19:47:39 18° NE 19:53:23 10° E visible
03 Jul - 21:42:31 10° NW 21:52:00 89° SW 22:01:19 10° SE visible
